Flag for U.S.A. Weather past 2 weeks in Clarksville, Tennessee, U.S.A.

Now
36 °F

Sunny.


Feels Like: 33 °F
Forecast: 27 / 49 °F
Wind: 3 mph from East

Location: Outlaw Field

Current Time: Dec 21, 2014 at 10:12:42 AM

Latest Report: Dec 21, 2014 at 9:52 AM


Visibility: 8 mi

Pressure: 30.25 "Hg

Humidity: 79%

Dew point: 30 °F

Location of ClarksvilleLocation

Historic Weather in Clarksville — Graph

°F

Clarksville temperature yesterday

Maximum temperature yesterday: 41 °F (at 2:52 PM)
Minimum temperature yesterday: 26 °F (at 10:52 PM)
Average temperature yesterday: 33 °F

Past Weeks' High & Low Weather Summary

 TemperatureHumidityPressure
High57 °F (Dec 15, 10:52 PM)100% (Dec 15, 1:52 AM)30.52 "Hg (Dec 15, 1:52 AM)
Low21 °F (Dec 12, 4:52 AM)55% (Dec 8, 10:52 AM)29.78 "Hg (Dec 15, 10:52 PM)
Average39 °F78%30.25 "Hg
* Reported Dec 6 8:52 AM — Dec 21 8:52 AM, Clarksville, Weather by CustomWeather, © 2014

Note: Actual official high and low records may vary slightly from our data, if they occured in-between our weather recording intervals... More about our weather records

Advertising

Clarksville weather history for previous 24 hours

 ConditionsComfort  
Time TempWeatherWind HumidityBarometerVisibility
8:52 AM
Dec 21
31 °FIce fog.5 mph85%30.26 "Hg6 mi
7:52 AM27 °FIce fog.3 mph92%30.26 "Hg4 mi
6:52 AM23 °FIce fog.No wind92%30.27 "Hg4 mi
5:52 AM25 °FIce fog.No wind85%30.26 "Hg5 mi
4:52 AM23 °FClear.No wind92%30.26 "Hg9 mi
3:52 AM24 °FClear.No wind88%30.25 "Hg7 mi
2:52 AM25 °FIce fog.No wind88%30.28 "Hg6 mi
1:52 AM26 °FClear.No wind88%30.28 "Hg8 mi
12:52 AM25 °FIce fog.No wind92%30.27 "Hg6 mi
11:52 PM
Dec 20
26 °FClear.No wind92%30.29 "Hg8 mi
10:52 PM26 °FClear.No wind92%30.29 "Hg7 mi
9:52 PM28 °FClear.No wind89%30.29 "Hg7 mi
8:52 PM29 °FClear.No wind89%30.29 "Hg10 mi
7:52 PM30 °FClear.No wind89%30.28 "Hg10 mi
6:52 PM33 °FClear.3 mph82%30.28 "Hg10 mi
5:52 PM36 °FClear.No wind70%30.28 "Hg10 mi
4:52 PM35 °FClear.3 mph72%30.27 "Hg10 mi
3:52 PM41 °FPassing clouds.No wind60%30.27 "Hg10 mi
2:52 PM41 °FOvercast.3 mph60%30.26 "Hg10 mi
1:52 PM40 °FOvercast.No wind63%30.25 "Hg10 mi
12:52 PM39 °FOvercast.3 mph65%30.27 "Hg10 mi
11:52 AM38 °FOvercast.3 mph68%30.29 "Hg10 mi
10:52 AM37 °FOvercast.No wind70%30.31 "Hg10 mi
Weather by CustomWeather, © 2014

See weather overviewHow to use our weather pages